EZY57HQ EGGP-LTFE

Flight info

Callsign EZY57HQ
Flight time N/A
Altitude 35000
Route NANTI L8 HON L15 FINMA DCT CHT DCT ITVIP DCT KONAN DCT KOK DCT KOMOB M150 PITES DCT KRH DCT UTABA DCT MOMUK DCT UMVEG DCT GIMIX DCT GORPA DCT TIVNU DCT MITNO DCT VABEK UL603 OLOTA DCT RUGAS DCT PEREN DCT STINO DCT VEXOL UG802 IMR UN128 OKESA
Aircraft A320/M-SDE2E3FGHIJ1RWXYZ/LB1

Departure

Time N/A
Airport Liverpool John Lennon Airport (EGGP)

Arrival

Time 2026-05-08 15:35
Airport Milas Bodrum International Airport (LTFE)
Time Latitude Longitude Altitude Speed Heading
2026-05-08 14:55 40.23432 24.38363 35041 ft 455 kts 144°
2026-05-08 14:56 40.21042 24.41083 35043 ft 455 kts 144°
2026-05-08 14:56 40.17065 24.45605 35043 ft 456 kts 144°
2026-05-08 14:57 40.12273 24.51049 35038 ft 457 kts 145°
2026-05-08 14:57 40.07468 24.56492 35041 ft 458 kts 145°
2026-05-08 14:58 40.01874 24.62823 35033 ft 459 kts 145°
2026-05-08 14:58 39.97829 24.67389 35039 ft 459 kts 145°
2026-05-08 14:59 39.92990 24.72845 35045 ft 460 kts 145°
2026-05-08 14:59 39.85751 24.80993 35045 ft 461 kts 146°
2026-05-08 15:00 39.80880 24.86440 35041 ft 462 kts 146°
2026-05-08 15:00 39.76005 24.91887 35039 ft 463 kts 146°
2026-05-08 15:01 39.71117 24.97338 35041 ft 463 kts 146°
2026-05-08 15:01 39.66227 25.02790 35046 ft 464 kts 146°
2026-05-08 15:02 39.61329 25.08243 35047 ft 464 kts 146°
2026-05-08 15:02 39.56246 25.13312 35048 ft 459 kts 152°
2026-05-08 15:03 39.50996 25.18025 35051 ft 459 kts 152°
2026-05-08 15:03 39.45780 25.22710 35053 ft 460 kts 152°
2026-05-08 15:04 39.40525 25.27443 35055 ft 460 kts 152°
2026-05-08 15:04 39.35264 25.32168 35055 ft 461 kts 152°
2026-05-08 15:05 39.29995 25.36880 35053 ft 461 kts 152°
2026-05-08 15:05 39.24717 25.41590 35054 ft 461 kts 152°
2026-05-08 15:06 39.19434 25.46304 35053 ft 462 kts 152°
2026-05-08 15:06 39.14150 25.51014 35056 ft 462 kts 152°
2026-05-08 15:07 39.08860 25.55711 35057 ft 462 kts 152°
2026-05-08 15:07 39.03554 25.60397 35058 ft 463 kts 153°
2026-05-08 15:08 38.98242 25.65084 35058 ft 463 kts 152°
2026-05-08 15:08 38.92935 25.69777 35058 ft 464 kts 152°
2026-05-08 15:09 38.87655 25.74443 35061 ft 464 kts 152°
2026-05-08 15:09 38.82346 25.79161 35036 ft 467 kts 149°
2026-05-08 15:10 38.79805 25.81752 34794 ft 466 kts 147°
2026-05-08 15:10 38.77313 25.84397 34553 ft 465 kts 147°
2026-05-08 15:10 38.74851 25.87077 34314 ft 464 kts 146°
2026-05-08 15:10 38.72406 25.89765 34089 ft 463 kts 146°
2026-05-08 15:11 38.69964 25.92444 33816 ft 462 kts 146°
2026-05-08 15:11 38.67522 25.95101 33537 ft 460 kts 146°
2026-05-08 15:11 38.65077 25.97738 33269 ft 459 kts 147°
2026-05-08 15:11 38.62638 26.00352 32979 ft 456 kts 147°
2026-05-08 15:12 38.60209 26.02945 32433 ft 454 kts 147°
2026-05-08 15:12 38.57786 26.05523 31896 ft 453 kts 146°
2026-05-08 15:12 38.55361 26.08101 31360 ft 454 kts 146°
2026-05-08 15:12 38.52935 26.10681 30822 ft 454 kts 146°
2026-05-08 15:13 38.50545 26.13226 30304 ft 453 kts 146°
2026-05-08 15:13 38.48127 26.15799 29735 ft 452 kts 146°
2026-05-08 15:13 38.45726 26.18357 29236 ft 448 kts 146°
2026-05-08 15:13 38.43346 26.20898 28745 ft 444 kts 146°
2026-05-08 15:14 38.40988 26.23414 28256 ft 440 kts 145°
2026-05-08 15:14 38.38644 26.25907 27768 ft 437 kts 146°
2026-05-08 15:14 38.36317 26.28376 27285 ft 434 kts 145°
2026-05-08 15:14 38.34000 26.30830 26800 ft 432 kts 145°
2026-05-08 15:15 38.31694 26.33266 26296 ft 430 kts 145°
2026-05-08 15:15 38.29398 26.35686 25816 ft 428 kts 145°
2026-05-08 15:15 38.27108 26.38102 25291 ft 427 kts 144°
2026-05-08 15:15 38.24824 26.40514 24789 ft 427 kts 144°
2026-05-08 15:16 38.22540 26.42928 24256 ft 427 kts 144°
2026-05-08 15:16 38.20253 26.45344 23722 ft 428 kts 144°
2026-05-08 15:16 38.17962 26.47758 23129 ft 427 kts 144°
2026-05-08 15:16 38.15683 26.50155 22694 ft 423 kts 144°
2026-05-08 15:17 38.13421 26.52532 22242 ft 419 kts 144°
2026-05-08 15:17 38.11186 26.54882 21831 ft 415 kts 144°
2026-05-08 15:17 38.08969 26.57215 21367 ft 413 kts 144°
2026-05-08 15:17 38.06767 26.59525 20945 ft 409 kts 144°
2026-05-08 15:18 38.04580 26.61816 20528 ft 406 kts 144°
2026-05-08 15:18 38.02412 26.64084 20127 ft 402 kts 144°
2026-05-08 15:18 38.00259 26.66332 19740 ft 399 kts 144°
2026-05-08 15:18 37.98127 26.68562 19357 ft 396 kts 144°
2026-05-08 15:19 37.96012 26.70775 18989 ft 393 kts 144°
2026-05-08 15:19 37.93915 26.72968 18627 ft 389 kts 144°
2026-05-08 15:19 37.91832 26.75143 18240 ft 386 kts 144°
2026-05-08 15:19 37.89764 26.77298 17818 ft 383 kts 144°
2026-05-08 15:20 37.87713 26.79431 17408 ft 380 kts 144°
2026-05-08 15:20 37.85674 26.81548 17002 ft 378 kts 144°
2026-05-08 15:20 37.83653 26.83650 16602 ft 375 kts 144°
2026-05-08 15:20 37.81647 26.85736 16214 ft 372 kts 144°
2026-05-08 15:21 37.79655 26.87805 15855 ft 370 kts 144°
2026-05-08 15:21 37.77674 26.89863 15495 ft 367 kts 144°
2026-05-08 15:21 37.75709 26.91903 15136 ft 364 kts 144°
2026-05-08 15:21 37.73756 26.93933 14790 ft 362 kts 144°
2026-05-08 15:22 37.71818 26.95948 14442 ft 360 kts 144°
2026-05-08 15:22 37.69892 26.97947 14106 ft 357 kts 144°
2026-05-08 15:22 37.68010 26.99893 13542 ft 352 kts 144°
2026-05-08 15:22 37.66123 27.01840 12827 ft 349 kts 144°
2026-05-08 15:23 37.64258 27.03765 12140 ft 344 kts 144°
2026-05-08 15:23 37.62387 27.05600 11499 ft 335 kts 153°
2026-05-08 15:23 37.60271 27.06606 10841 ft 320 kts 177°
2026-05-08 15:23 37.58086 27.06745 10210 ft 312 kts 185°
2026-05-08 15:24 37.55933 27.06734 9525 ft 308 kts 185°
2026-05-08 15:24 37.53806 27.06692 8831 ft 303 kts 185°
2026-05-08 15:24 37.51711 27.06624 8171 ft 298 kts 185°
2026-05-08 15:24 37.49679 27.06904 7658 ft 294 kts 164°
2026-05-08 15:25 37.47845 27.07958 7243 ft 285 kts 156°
2026-05-08 15:25 37.46123 27.09087 6861 ft 273 kts 155°
2026-05-08 15:25 37.44473 27.10178 6476 ft 263 kts 155°
2026-05-08 15:25 37.42882 27.11223 6068 ft 253 kts 155°
2026-05-08 15:26 37.41341 27.12220 5656 ft 245 kts 155°
2026-05-08 15:26 37.39844 27.13169 5285 ft 237 kts 155°
2026-05-08 15:26 37.38379 27.14079 4944 ft 233 kts 155°
2026-05-08 15:26 37.36927 27.14963 4595 ft 232 kts 155°
2026-05-08 15:27 37.35475 27.15834 4244 ft 232 kts 155°
2026-05-08 15:27 37.34167 27.16972 4054 ft 229 kts 129°
2026-05-08 15:27 37.33353 27.18706 4049 ft 233 kts 117°
2026-05-08 15:27 37.32666 27.20555 4051 ft 234 kts 116°
2026-05-08 15:28 37.31994 27.22419 4052 ft 234 kts 115°
2026-05-08 15:28 37.31326 27.24285 4055 ft 234 kts 115°
2026-05-08 15:28 37.30657 27.26154 4057 ft 234 kts 115°
2026-05-08 15:28 37.30000 27.27999 4058 ft 235 kts 113°
2026-05-08 15:29 37.29790 27.30007 4060 ft 237 kts 80°
2026-05-08 15:29 37.30175 27.32022 4061 ft 238 kts 77°
2026-05-08 15:29 37.30565 27.34045 4060 ft 238 kts 77°
2026-05-08 15:29 37.30953 27.36067 4065 ft 238 kts 77°
2026-05-08 15:30 37.31331 27.38092 4067 ft 238 kts 81°
2026-05-08 15:30 37.31318 27.40092 4054 ft 222 kts 102°
2026-05-08 15:30 37.30950 27.41945 3998 ft 217 kts 107°
2026-05-08 15:30 37.30516 27.43767 3752 ft 219 kts 108°
2026-05-08 15:31 37.30076 27.45611 3451 ft 221 kts 107°
2026-05-08 15:31 37.29636 27.47471 3148 ft 221 kts 107°
2026-05-08 15:31 37.29205 27.49292 2797 ft 213 kts 107°
2026-05-08 15:31 37.28793 27.51032 2487 ft 203 kts 107°
2026-05-08 15:32 37.28404 27.52676 2201 ft 190 kts 107°
2026-05-08 15:32 37.28036 27.54225 1933 ft 181 kts 107°
2026-05-08 15:32 37.27684 27.55708 1680 ft 172 kts 107°
2026-05-08 15:32 37.27351 27.57113 1426 ft 164 kts 107°
2026-05-08 15:33 37.27031 27.58460 1176 ft 159 kts 107°
2026-05-08 15:33 37.26721 27.59766 939 ft 158 kts 107°
2026-05-08 15:33 37.26410 27.61084 712 ft 158 kts 107°
2026-05-08 15:33 37.26099 27.62403 490 ft 158 kts 108°
2026-05-08 15:34 37.25783 27.63715 271 ft 156 kts 108°
2026-05-08 15:34 37.25473 27.65020 59 ft 155 kts 107°
2026-05-08 15:34 37.25188 27.66222 29 ft 122 kts 106°
2026-05-08 15:34 37.24993 27.67037 29 ft 75 kts 106°
2026-05-08 15:35 37.24896 27.67396 32 ft 24 kts 126°
2026-05-08 15:35 37.24792 27.67527 33 ft 18 kts 136°
2026-05-08 15:35 37.24703 27.67631 32 ft 17 kts 137°
2026-05-08 15:35 37.24601 27.67657 31 ft 16 kts 196°
2026-05-08 15:36 37.24521 27.67625 30 ft 11 kts 202°
2026-05-08 15:36 37.24471 27.67601 30 ft 11 kts 197°
2026-05-08 15:36 37.24437 27.67589 30 ft 0 kts 197°